Location: Arborea
(39.7744°N, 8.5819°E)
Time: 02:42:01
(UTC+00:00)

Cosmos 1953 - Pass Details

Date: 30 May 2022
Orbit: 533 x 555 km, 82.5° (Epoch: 04 July)

Event Time Altitude Azimuth Distance (km) Brightness Sun altitude
Rises 23:16:14 0° 356° (N) 2,715 7.1 -28.3°
Reaches altitude 10° 23:18:27 10° 1° (N) 1,814 5.9 -28.3°
Enters shadow 23:20:56 34° 19° (NNE) 898 3.8 -28.3°
